Weather History for Owatonna, MN

Change the Weather History Date:

Sunday, January 13, 2013

  Actual Average Record
Temperature  
Mean Temperature 8 °F -  
Max Temperature 12 °F 23 °F 47 °F (1987)
Min Temperature 3 °F 5 °F -26 °F (1965)
Degree Days  
Heating Degree Days 58    
Moisture  
Dew Point -2 °F    
Average Humidity 64    
Maximum Humidity 72    
Minimum Humidity 56    
Precipitation  
Precipitation 0.00 in - - ()
Sea Level Pressure  
Sea Level Pressure 30.09 in    
Wind  
Wind Speed 11 mph (WNW)    
Max Wind Speed 16 mph    
Max Gust Speed 17 mph    
Visibility 10 miles    
Events Snow    
Averages and records for this station are not official NWS values.
T = Trace of Precipitation, MM = Missing Value Source: NWS Daily Summary

Daily Weather History Graph

Daily Weather History Graph

Search for Another Location

Airport:

Trip Planner

Search our weather history database for the weather conditions in past years. The results will help you decide how hot, cold, wet, or windy it might be!

Date:

Astronomy

Jan. 13, 2013 Rise Set
Actual Time 7:45 AM CST 4:58 PM CST
Civil Twilight 7:13 AM CST 5:30 PM CST
Nautical Twilight 6:37 AM CST 6:06 PM CST
Astronomical Twilight 6:02 AM CST 6:41 PM CST
Moon 8:38 AM CST (1/13) 7:44 PM CST (1/13)
Length of Visible Light 10h 17m
Length of Day
9h 12m
Waxing Crescent, 5% of the Moon is Illuminated
Jan 13
Waxing Crescent
Jan 18
First Quarter
Jan 26
Full
Feb 3
Last Quarter
Feb 10
New

Hourly Weather History & Observations

Time (CST) Temp. Windchill Dew Point Humidity Pressure Visibility Wind Dir Wind Speed Gust Speed Precip Events Conditions
12:14 AM 6.8 °F -10.0 °F -4.0 °F 61% 30.03 in 10.0 mi WNW 13.8 mph - N/A   Scattered Clouds
12:34 AM 6.8 °F -7.8 °F -2.2 °F 67% 30.02 in 10.0 mi WNW 10.4 mph - N/A   Scattered Clouds
12:54 AM 6.8 °F -8.6 °F -4.0 °F 61% 30.01 in 10.0 mi WNW 11.5 mph - N/A   Scattered Clouds
1:14 AM 6.8 °F -10.0 °F -2.2 °F 67% 30.01 in 10.0 mi WNW 13.8 mph - N/A   Scattered Clouds
1:33 AM 6.8 °F -9.3 °F -4.0 °F 61% 30.01 in 10.0 mi NW 12.7 mph - N/A   Scattered Clouds
1:54 AM 6.8 °F -7.8 °F -4.0 °F 61% 30.01 in 10.0 mi NW 10.4 mph - N/A   Clear
2:14 AM 6.8 °F -8.6 °F -4.0 °F 61% 30.01 in 10.0 mi NW 11.5 mph - N/A   Clear
2:34 AM 6.8 °F -7.8 °F -4.0 °F 61% 30.01 in 10.0 mi WNW 10.4 mph - N/A   Clear
2:53 AM 6.8 °F -7.8 °F -4.0 °F 61% 30.02 in 10.0 mi WNW 10.4 mph - N/A   Scattered Clouds
3:13 AM 6.8 °F -5.9 °F -4.0 °F 61% 30.02 in 10.0 mi WNW 8.1 mph - N/A   Scattered Clouds
3:34 AM 6.8 °F -6.9 °F -4.0 °F 61% 30.02 in 10.0 mi WNW 9.2 mph - N/A   Mostly Cloudy
3:54 AM 6.8 °F -8.6 °F -5.8 °F 56% 30.01 in 10.0 mi WNW 11.5 mph - N/A   Scattered Clouds
4:14 AM 6.8 °F -7.8 °F -4.0 °F 61% 30.01 in 10.0 mi WNW 10.4 mph - N/A   Scattered Clouds
4:34 AM 5.0 °F -11.6 °F -4.0 °F 66% 30.00 in 10.0 mi WNW 12.7 mph - N/A   Scattered Clouds
4:54 AM 5.0 °F -10.0 °F -5.8 °F 61% 30.01 in 10.0 mi WNW 10.4 mph - N/A   Scattered Clouds
5:13 AM 5.0 °F -6.9 °F -5.8 °F 61% 30.02 in 10.0 mi WNW 6.9 mph - N/A   Clear
5:33 AM 5.0 °F -10.8 °F -5.8 °F 61% 30.02 in 10.0 mi NW 11.5 mph - N/A   Mostly Cloudy
5:54 AM 5.0 °F -9.1 °F -5.8 °F 61% 30.03 in 10.0 mi WNW 9.2 mph - N/A   Scattered Clouds
6:14 AM 5.0 °F -6.9 °F -4.0 °F 66% 30.05 in 10.0 mi WNW 6.9 mph - N/A   Scattered Clouds
6:34 AM 5.0 °F -10.0 °F -5.8 °F 61% 30.06 in 10.0 mi WNW 10.4 mph - N/A   Scattered Clouds
6:54 AM 5.0 °F -10.0 °F -5.8 °F 61% 30.06 in 10.0 mi WNW 10.4 mph - N/A   Clear
7:13 AM 3.2 °F -7.8 °F -5.8 °F 66% 30.07 in 10.0 mi WNW 5.8 mph - N/A   Clear
7:33 AM 3.2 °F -10.3 °F -5.8 °F 66% 30.08 in 10.0 mi WNW 8.1 mph - N/A   Clear
7:54 AM 3.2 °F -11.3 °F -5.8 °F 66% 30.08 in 10.0 mi WNW 9.2 mph - N/A   Clear
8:14 AM 3.2 °F -10.3 °F -5.8 °F 66% 30.09 in 10.0 mi WNW 8.1 mph - N/A   Clear
8:34 AM 5.0 °F -9.1 °F -4.0 °F 66% 30.10 in 10.0 mi West 9.2 mph - N/A   Clear
8:54 AM 5.0 °F -6.9 °F -4.0 °F 66% 30.11 in 10.0 mi WNW 6.9 mph - N/A   Clear
9:13 AM 6.8 °F -6.9 °F -4.0 °F 61% 30.11 in 10.0 mi West 9.2 mph - N/A   Clear
9:33 AM 6.8 °F -7.8 °F -2.2 °F 67% 30.10 in 10.0 mi WNW 10.4 mph - N/A   Clear
9:53 AM 6.8 °F -9.3 °F -2.2 °F 67% 30.10 in 7.0 mi West 12.7 mph - N/A   Scattered Clouds
10:13 AM 6.8 °F -8.6 °F -2.2 °F 67% 30.09 in 5.0 mi WNW 11.5 mph - N/A Snow Light Snow
10:54 AM 8.6 °F -6.3 °F -2.2 °F 62% 30.08 in 10.0 mi WNW 11.5 mph - N/A Snow Light Snow
11:33 AM 8.6 °F -7.0 °F -0.4 °F 67% 30.05 in 10.0 mi WNW 12.7 mph - N/A Snow Light Snow
11:53 AM 10.4 °F -3.3 °F -0.4 °F 62% 30.05 in 10.0 mi West 10.4 mph - N/A   Mostly Cloudy
12:14 PM 10.4 °F -3.3 °F -0.4 °F 62% 30.05 in 7.0 mi West 10.4 mph - N/A   Mostly Cloudy
12:33 PM 10.4 °F -5.4 °F -0.4 °F 62% 30.06 in 10.0 mi WNW 13.8 mph - N/A   Scattered Clouds
12:53 PM 10.4 °F -4.1 °F -0.4 °F 62% 30.06 in 10.0 mi West 11.5 mph - N/A   Scattered Clouds
1:14 PM 10.4 °F -4.1 °F -0.4 °F 62% 30.06 in 10.0 mi West 11.5 mph - N/A   Scattered Clouds
1:33 PM 10.4 °F -4.8 °F -0.4 °F 62% 30.06 in 7.0 mi West 12.7 mph - N/A   Scattered Clouds
1:54 PM 10.4 °F -4.1 °F -0.4 °F 62% 30.07 in 10.0 mi West 11.5 mph - N/A   Scattered Clouds
2:14 PM 10.4 °F -4.8 °F -0.4 °F 62% 30.07 in 10.0 mi WNW 12.7 mph - N/A   Scattered Clouds
2:33 PM 10.4 °F -6.6 °F -0.4 °F 62% 30.08 in 10.0 mi West 16.1 mph - N/A   Scattered Clouds
2:53 PM 10.4 °F -4.8 °F -0.4 °F 62% 30.08 in 10.0 mi West 12.7 mph 17.3 mph N/A   Mostly Cloudy
3:14 PM 10.4 °F -4.8 °F -0.4 °F 62% 30.09 in 10.0 mi WNW 12.7 mph - N/A   Mostly Cloudy
3:34 PM 10.4 °F -5.4 °F -0.4 °F 62% 30.10 in 7.0 mi WNW 13.8 mph - N/A   Mostly Cloudy
3:54 PM 10.4 °F -4.1 °F -0.4 °F 62% 30.10 in 10.0 mi WNW 11.5 mph 17.3 mph N/A   Mostly Cloudy
4:13 PM 10.4 °F -3.3 °F -0.4 °F 62% 30.11 in 10.0 mi West 10.4 mph - N/A   Overcast
4:33 PM 12.2 °F -2.5 °F 1.4 °F 62% 30.12 in 10.0 mi WNW 12.7 mph - N/A   Overcast
4:53 PM 10.4 °F -4.1 °F 1.4 °F 67% 30.12 in 10.0 mi WNW 11.5 mph - N/A   Overcast
5:13 PM 10.4 °F -4.1 °F 1.4 °F 67% 30.13 in 10.0 mi West 11.5 mph - N/A   Mostly Cloudy
5:34 PM 10.4 °F -4.8 °F -0.4 °F 62% 30.13 in 10.0 mi West 12.7 mph - N/A   Scattered Clouds
5:53 PM 10.4 °F -3.3 °F -0.4 °F 62% 30.13 in 10.0 mi West 10.4 mph - N/A   Clear
6:14 PM 8.6 °F -8.3 °F -0.4 °F 67% 30.15 in 10.0 mi West 15.0 mph - N/A   Clear
6:33 PM 8.6 °F -6.3 °F -0.4 °F 67% 30.15 in 10.0 mi WNW 11.5 mph - N/A   Clear
6:53 PM 8.6 °F -5.5 °F -0.4 °F 67% 30.16 in 10.0 mi WNW 10.4 mph - N/A   Clear
7:14 PM 8.6 °F -4.7 °F -2.2 °F 62% 30.16 in 10.0 mi WNW 9.2 mph - N/A   Clear
7:34 PM 8.6 °F -2.6 °F -2.2 °F 62% 30.17 in 10.0 mi WNW 6.9 mph - N/A   Clear
7:54 PM 8.6 °F -2.6 °F -2.2 °F 62% 30.17 in 10.0 mi West 6.9 mph - N/A   Clear
8:13 PM 8.6 °F -2.6 °F -2.2 °F 62% 30.18 in 10.0 mi West 6.9 mph - N/A   Clear
8:33 PM 6.8 °F -3.5 °F -2.2 °F 67% 30.18 in 10.0 mi West 5.8 mph - N/A   Clear
8:53 PM 8.6 °F -2.6 °F -0.4 °F 67% 30.19 in 10.0 mi WSW 6.9 mph - N/A   Clear
9:14 PM 8.6 °F -1.3 °F -0.4 °F 67% 30.20 in 10.0 mi West 5.8 mph - N/A   Clear
9:34 PM 6.8 °F -0.1 °F -2.2 °F 67% 30.19 in 10.0 mi WSW 3.5 mph - N/A   Clear
9:54 PM 6.8 °F -2.0 °F -2.2 °F 67% 30.19 in 10.0 mi West 4.6 mph - N/A   Clear
10:13 PM 6.8 °F -2.0 °F -2.2 °F 67% 30.20 in 10.0 mi WSW 4.6 mph - N/A   Clear
10:34 PM 6.8 °F -0.1 °F -2.2 °F 67% 30.20 in 10.0 mi WSW 3.5 mph - N/A   Clear
10:54 PM 8.6 °F 0.1 °F -2.2 °F 62% 30.21 in 10.0 mi WSW 4.6 mph - N/A   Clear
11:34 PM 6.8 °F -3.5 °F -2.2 °F 67% 30.21 in 10.0 mi SW 5.8 mph - N/A   Clear
11:53 PM 6.8 °F -2.0 °F -0.4 °F 72% 30.22 in 10.0 mi SW 4.6 mph - N/A   Clear